CAPE
1702 1825 1834 1884 2069 2174 2171 2183 2340 2378 2490 2681 2871 2892 2737 2734 2632 2896 3204 3622 3812 4006 4167 4208 4244 4344 4319 4326 4317 4398 4418 4370 4242 4236 3976 3868 3342 3140 3225 3105 3009 2950 2487 2304 2382 2056 2094 1610 1320 1072 720 649 647 467 540 575 679 521 500 512 499 478 488
1585 1568 1758 1858 2008 2162 2303 2363 2425 2448 2593 2716 2906 3072 2779 2850 2884 2922 3219 3588 3843 3880 4156 4287 4253 4261 4269 4391 4379 4440 4398 4404 4324 4166 3992 3834 3608 3475 3462 3318 3114 3038 2898 2585 2246 2087 1994 1459 1101 958 590 682 505 478 494 680 684 497 360 495 456 572 330
1401 1554 1638 1859 2034 2139 2345 2414 2472 2474 2572 2590 2738 2854 2802 2981 3085 3092 3370 3600 3905 4012 4026 4305 4431 4322 4323 4340 4398 4548 4575 4532 4389 4375 4144 3695 3746 3535 3627 3305 3124 2799 2779 2594 1966 1760 1596 1314 1078 754 607 676 474 554 695 747 694 523 462 565 531 504 381
1160 1460 1569 1834 2180 2349 2464 2471 2566 2451 2477 2532 2610 2661 2886 3131 3275 3270 3407 3517 3834 3940 3936 4303 4434 4280 4370 4448 4503 4550 4637 4623 4523 4397 4160 3913 3982 3764 3606 3428 3082 2622 2698 2409 1699 1440 1252 1004 898 663 641 674 604 570 570 542 536 445 525 594 596 574 568
1174 1328 1454 1679 1906 2371 2593 2555 2601 2674 2454 2461 2664 2832 2914 3072 3278 3304 3379 3452 3551 3838 3917 4108 4278 4305 4330 4386 4407 4508 4618 4707 4634 4393 4219 3959 3934 3747 3485 3142 2951 2584 2407 2074 1552 1415 1215 942 874 718 755 687 672 591 544 499 500 534 505 588 717 643 624
1324 1462 1427 1574 1730 2175 2545 2567 2551 2543 2491 2486 2660 2787 2803 2868 2989 3015 3182 3463 3568 3756 3937 4059 4261 4295 4403 4322 4358 4347 4636 4771 4690 4536 4272 4019 3939 3626 3364 3140 2796 2525 2104 1879 1459 1479 1457 1210 760 696 642 552 372 311 508 522 510 456 546 785 674 630 434
1263 1624 1600 1612 1750 2006 2333 2450 2456 2477 2489 2479 2563 2763 2716 2705 2920 2906 2975 3258 3450 3678 3888 3877 4181 4199 4390 4338 4396 4448 4720 4716 4685 4433 4140 3995 3805 3628 3372 3156 2708 2349 2088 1864 1628 1375 1308 868 612 578 610 490 605 369 457 627 685 613 631 635 835 688 563
1403 1821 1817 1738 1668 1816 2023 2338 2493 2390 2494 2499 2507 2595 2604 2618 2831 2848 2932 3033 3242 3130 3405 3455 3840 4224 4396 4444 4413 4421 4674 4590 4502 4352 4010 3845 3740 3522 3258 3102 2647 2352 2032 1898 1639 1258 980 814 582 803 768 601 628 562 682 869 851 439 514 657 675 523 440
1464 1932 1877 1612 1630 1561 1702 2121 2318 2370 2541 2686 2632 2690 2759 2707 2668 2912 2931 2999 3223 3186 3208 3172 3410 3966 4458 4478 4476 4515 4594 4510 4431 4184 3951 3738 3465 3008 2850 2872 2644 2269 2060 1902 1630 1326 995 968 653 1369 1374 510 519 940 1029 1117 848 715 507 558 532 424 266
1472 2038 2052 1629 1416 1222 1512 1936 2380 2492 2715 2879 2873 2961 2959 2872 2909 2965 2966 2926 3063 3196 3136 3242 3212 3599 4354 4544 4459 4533 4596 4432 4217 3932 3671 3468 3061 2690 2598 2594 2577 2286 2125 1829 1548 1218 1076 1055 987 1412 744 342 769 1449 1024 938 896 684 627 839 622 527 466
1287 1967 2248 1792 1499 1515 1776 2068 2456 2829 3006 3272 3211 3025 3234 3128 2943 2946 3060 3018 2862 3119 3229 3344 3330 3447 4076 4438 4350 4372 4528 4400 4131 3859 3595 3284 2657 2495 2472 2466 2323 2116 1960 1406 1139 843 736 1010 1272 1000 799 606 968 1131 1034 909 724 612 711 870 709 602 494
2042 2107 2373 2044 1773 1778 1988 2467 2968 3229 3364 3554 3397 3306 3486 3408 3190 3026 3233 3183 3066 3106 3304 3385 3438 3370 3730 4290 4306 4406 4535 4450 4181 3707 3576 3295 2803 2449 2391 2373 2272 2108 1763 1426 1171 1203 946 954 772 870 846 592 511 834 940 845 633 713 720 649 693 815 697
2250 2298 2553 1982 2165 2176 2522 3132 3392 3606 3813 3790 3495 3617 3703 3559 3446 3278 3457 3505 3201 3166 3375 3534 3596 3688 3683 4187 4232 4427 4571 4505 4214 3781 3540 3454 2955 2538 2214 2010 1980 1793 1577 1488 1103 635 426 608 636 595 610 633 784 748 670 547 594 795 865 832 918 862 900
1694 2229 2266 2371 2478 2750 3127 3547 3752 3952 4114 3930 3746 3793 3772 3648 3684 3683 3798 3780 3583 3361 3325 3532 3806 3936 3952 4182 4333 4491 4750 4673 4351 3906 3609 3444 2974 2563 2190 2164 1867 1732 1602 1522 1089 494 222 541 679 643 672 708 510 488 698 820 752 764 951 1023 917 829 883
1903 2001 2384 2340 2799 2988 3264 3448 3905 4096 4042 3890 3765 3811 3911 3904 3826 3970 4055 3980 4040 3548 3596 3824 4030 4189 4240 4378 4450 4587 4894 4711 4314 3926 3369 2892 2759 2526 2350 1758 1843 1955 1710 1438 1208 594 258 502 784 827 607 560 392 450 564 538 550 544 580 736 930 866 731
1797 1697 2088 2393 2892 2912 3219 3523 3908 4100 4058 3925 3773 3854 3849 3795 3974 3953 4070 4092 4038 3989 3846 3951 4238 4445 4538 4561 4598 4667 4715 4415 4134 3540 2897 2888 2445 2500 2107 1933 1804 1638 1599 1466 1264 952 836 839 629 350 220 178 267 455 428 359 404 170 102 502 822 849 1038
1674 1483 1630 2370 2977 2906 3074 3347 3721 3885 3958 3868 3865 4023 3924 4108 4158 4111 3905 4090 4107 4171 3965 4076 4405 4652 4693 4726 4753 4628 4543 3922 3863 3306 3265 3010 2308 2352 2158 2122 2034 1811 1560 1348 1314 999 897 664 249 212 182 231 344 440 371 380 323 21 2 211 258 600 836
1339 1784 1695 2236 2643 2834 2972 3174 3763 3894 3981 3875 3909 4237 4357 4362 4322 4266 4010 4134 4070 4053 3974 4001 4315 4599 4773 4800 4807 4783 4332 3758 3428 3126 2956 2770 2474 2188 2130 2162 2089 2015 1900 1766 1527 960 944 840 530 388 262 147 214 180 253 322 56 0 22 60 10 15 429
1446 1919 2118 2520 2879 2924 2985 3243 3718 3850 3786 3798 4026 4292 4239 4438 4191 4321 4224 4285 4261 4170 4071 4152 4170 4620 4902 4895 4824 4810 4389 3778 3437 2956 3220 2742 2523 2158 2066 2106 2070 2024 1952 1830 1638 1569 1458 1277 1126 907 362 158 274 242 194 163 4 4 0 0 0 0 107
1513 1672 2155 2328 2780 2978 3182 3240 3404 3628 3831 4005 4074 4124 4200 4204 4232 4434 4251 4249 4334 4250 4182 4266 4377 4612 4797 4869 4790 4730 4449 3899 3450 3312 3128 2758 2397 1933 1940 2022 2035 2009 1890 1744 1593 1506 1327 1198 1042 1028 735 490 302 293 218 154 109 91 13 0 0 0 64
1848 2119 2406 2617 2965 2846 3134 3231 3380 3731 3778 3664 3648 3990 4147 4129 4044 4256 4179 4243 4362 4392 4319 4336 4616 4631 4654 4710 4708 4629 4412 4009 3488 3128 3062 2460 2030 1703 1718 1835 1858 1892 1837 1708 1672 1612 1460 1240 1064 983 807 488 340 233 171 194 2 96 14 0 0 0 99
1654 1971 2244 2440 2892 2775 3025 2778 3217 3381 3633 3660 3667 3947 4034 3845 3502 3531 4198 4316 4422 4435 4424 4544 4582 4495 4494 4498 4564 4442 4234 3936 3310 2940 2884 2295 1934 1775 1626 1668 1704 1762 1717 1643 1622 1581 1442 1303 1099 832 675 484 337 270 56 9 0 0 0 0 0 0 127
924 1553 1772 2238 2331 2513 3157 3107 3290 3524 3795 3604 3354 3240 2965 3096 3212 3639 4230 4243 4214 4442 4415 4398 4336 4242 4440 4324 4400 4151 3931 3699 3334 2877 2772 2349 2000 1657 1563 1566 1650 1662 1584 1532 1510 1446 1275 1077 879 715 595 551 399 286 58 234 164 0 0 0 0 0 436
790 1142 1412 1781 2100 2970 3198 2857 2632 3478 3001 3060 2687 3046 3193 3189 3147 3891 4180 4025 4095 4344 4265 4174 4094 4210 4312 4089 4066 3804 3560 3169 2421 2704 2721 2351 2016 1574 1474 1520 1596 1608 1524 1449 1404 1342 1203 906 702 540 526 513 476 296 348 274 108 0 0 0 0 33 663
1170 1335 1928 2250 2598 2640 2308 2680 2992 2984 2942 3155 3817 3780 3686 3615 3898 4022 4007 3979 4219 4090 4048 3904 3968 4072 4133 3872 3757 3518 3053 2591 2341 2472 2570 2365 2074 1634 1419 1424 1468 1445 1342 1231 1131 1038 854 656 556 476 419 377 292 151 244 190 185 0 473 432 70 1 718
1466 1656 1817 2126 2097 2612 3501 3570 3365 3420 3845 3966 4036 3962 4008 4009 3595 3500 3867 4234 3869 3666 3765 3778 3925 3970 3727 3509 3410 3102 2583 2001 2174 2282 2379 2394 2030 1769 1360 1359 1348 1306 1223 1084 862 646 620 603 524 392 364 420 372 390 297 274 703 1042 612 666 576 385 672
2426 2420 2306 2451 3029 3286 3394 3182 3310 3486 3773 3940 3808 3732 3624 3536 3727 4002 4088 3748 3618 3735 3772 3842 3752 3569 3402 3262 2906 2662 2352 2135 1962 2126 2114 2065 1886 1360 1272 1211 1195 1138 1073 872 659 482 494 480 456 377 560 612 738 791 882 945 1018 2501 875 805 598 377 453
2271 2575 2906 3051 2886 2874 3056 3579 4161 4048 3937 3841 3737 3599 3749 4073 4128 4078 3782 3858 4022 3852 3643 3578 3356 3208 3162 2874 2492 2288 2072 1764 1928 1964 1922 1864 1746 1231 1213 1134 1028 948 844 546 453 415 564 634 628 824 884 960 1163 1380 1493 1286 1067 1793 1204 1073 704 449 458
2753 2685 2768 2957 3204 3144 3338 3560 3478 3266 3081 2957 3204 3486 3592 3810 3845 3685 3788 4008 3585 3331 3290 3167 3010 2939 2757 2424 2198 1992 1986 1874 1878 1701 1416 1556 1398 1221 1086 999 908 762 676 705 710 653 655 760 838 1094 1351 1581 1973 1912 1647 1576 1702 882 907 793 461 462 487
2706 2704 2558 2570 2832 2975 2980 2958 2691 2476 2512 2628 3029 3317 3466 3839 3737 3760 3847 3436 3020 2920 2898 2871 2770 2551 2408 2178 2010 1827 1686 1542 1596 1560 1531 1308 1195 1101 1034 948 807 752 859 848 748 687 688 849 905 1205 1259 1514 1506 1414 1196 1283 1120 683 481 354 94 266 230
2195 2187 2234 2268 2310 2474 2526 2610 2692 2621 2632 2704 2950 3163 3300 3525 3825 3814 3422 3012 2848 2812 2828 2696 2499 2355 2180 2119 1716 1677 1561 1530 1478 1556 1420 1123 1127 1065 982 923 788 842 846 866 781 758 818 1160 1396 1608 1636 1535 1447 1175 981 1055 1159 514 227 0 2 34 0
2601 2490 2486 2523 2626 2539 2469 2483 2565 2701 2773 2886 2939 3078 3414 3732 3952 3694 3018 2755 2734 2745 2749 2568 2472 2280 2158 1868 1686 1556 1489 1499 1413 1354 1250 1077 1054 1009 911 856 812 892 892 850 828 846 1167 1669 1543 1448 1421 1578 1662 1364 910 742 635 382 134 0 0 0 0
3008 3013 3028 3060 2952 2839 2961 2954 2920 2968 2893 2859 2808 2821 3084 3536 3420 2996 2781 2635 2620 2590 2592 2522 2361 2130 1898 1922 1672 1614 1420 1438 1146 980 973 1128 972 944 874 981 916 740 898 897 932 753 1008 1554 1565 1616 1449 1568 1610 1314 774 840 654 652 459 132 4 0 22
2805 2717 2923 3213 3277 3110 2964 2954 3107 2975 2962 2803 2673 2705 2844 2844 2778 2554 2443 2262 2211 2370 2432 2262 2142 1981 1854 1709 1628 1562 1517 1389 1143 1132 1077 912 883 859 824 826 679 951 916 824 730 831 1169 1341 1480 1511 1396 1358 1452 1187 686 596 540 574 703 557 419 218 237
2677 2773 2807 3004 3320 3409 3241 3249 3320 3085 2782 2732 2748 2754 2725 2404 2186 2248 2192 2068 2217 2345 2368 2108 1795 1824 1474 1452 1404 1418 1328 1365 1190 1152 1181 1046 798 801 794 819 800 1154 945 1272 1194 1513 1210 1410 1224 1330 1247 1189 1199 817 852 851 644 629 342 769 291 1059 373
2189 2276 2395 2554 2775 3008 3135 3255 3285 3165 2895 2727 2682 2651 2540 2292 2123 2051 1822 1978 2090 2240 2316 2058 1821 1654 1370 1392 1357 1320 969 1220 959 1072 1191 1062 814 761 760 756 811 828 684 616 557 438 333 430 749 813 892 1094 1036 821 768 642 662 470 306 230 191 0 92
1996 1980 2132 2304 2382 2493 2596 2590 2701 2876 2830 2669 2581 2372 2324 2305 2108 1979 1776 1865 2083 2297 2310 2128 1880 1597 1246 1057 935 1105 1035 1149 1208 1198 1197 1036 792 772 784 795 775 844 848 632 519 513 579 524 534 520 593 674 675 680 636 498 468 406 174 0 0 0 0
1712 1850 1846 1992 2354 2582 2592 2608 2622 2452 2376 2288 2314 2330 2344 2206 2147 2058 1888 2009 2060 2114 2176 2069 1853 1703 1485 1231 1166 1026 1098 1148 1206 1228 1122 802 736 766 764 751 734 676 688 673 544 602 595 575 489 515 600 631 624 400 269 168 59 0 0 0 0 166 173
Wind_Speed
13 16 16 13 11 12 13 15 17 18 19 19 19 21 19 18 17 17 18 18 18 16 16 16 16 16 17 16 17 16 16 14 13 12 12 13 13 15 17 18 20 21 20 21 22 23 25 27 28 29 28 29 29 29 29 29 29 30 29 28 28 27 26
13 17 18 15 14 15 16 18 18 17 18 19 19 21 19 20 18 18 18 19 19 18 18 18 18 17 17 16 16 16 15 13 12 12 12 14 15 16 18 19 20 21 21 21 23 25 27 28 29 30 30 31 31 32 33 33 33 33 32 31 30 29 30
15 17 17 15 14 14 17 18 19 18 20 20 21 20 20 20 20 20 20 20 20 20 19 19 19 18 17 16 16 15 14 13 13 14 16 17 18 19 20 21 22 23 24 25 25 27 27 28 28 29 30 31 33 34 35 36 36 36 35 33 32 31 30
13 13 13 13 14 15 18 21 22 21 20 22 23 23 22 22 21 20 20 20 21 20 19 18 18 17 17 16 14 14 13 13 14 15 17 19 20 21 22 24 25 26 27 28 28 28 28 28 30 30 31 31 33 34 35 37 39 40 38 36 34 32 30
8 8 8 11 14 14 16 18 20 21 21 22 23 24 24 24 22 19 18 19 20 20 18 17 15 14 13 13 12 12 12 14 15 17 18 20 22 23 25 26 28 29 29 30 30 30 30 31 32 33 33 33 36 37 38 38 37 38 39 38 36 33 31
5 6 8 11 13 16 17 18 20 22 22 23 24 25 25 26 23 21 18 18 17 17 16 15 13 12 11 11 11 12 13 15 17 19 20 22 24 25 26 27 28 30 31 32 32 32 34 33 34 36 36 38 38 38 38 39 36 36 39 39 34 30 30
5 6 9 10 12 13 15 15 18 20 21 22 23 25 25 25 24 21 18 17 17 16 15 13 12 11 10 11 11 13 15 17 19 21 22 24 26 27 28 28 31 33 32 33 32 33 35 35 35 36 37 39 40 39 38 38 35 34 38 35 28 26 28
6 7 8 10 10 11 12 15 18 20 22 22 23 25 26 24 22 21 19 16 15 14 13 13 12 10 11 11 12 15 16 18 20 22 23 25 27 29 32 31 33 35 35 34 33 34 36 37 37 36 36 37 37 40 41 37 34 32 31 27 22 23 27
9 9 10 11 12 13 13 16 19 22 25 26 25 25 26 23 21 20 19 17 15 14 13 12 11 11 11 12 14 16 17 19 21 22 25 27 29 33 34 32 35 38 38 35 34 35 36 38 38 37 39 35 33 38 40 38 33 26 21 21 22 23 24
13 12 13 13 15 16 17 18 22 25 27 26 25 25 26 23 20 19 17 16 14 13 12 11 10 11 13 14 16 18 20 21 22 25 27 28 30 34 35 35 37 39 39 37 34 35 35 37 37 37 38 32 29 33 35 35 31 22 18 22 24 23 24
14 14 16 15 17 20 21 20 24 27 28 28 27 27 26 23 19 17 16 14 12 11 12 12 12 14 15 16 19 21 22 24 24 25 27 28 29 35 37 37 38 40 41 38 34 35 37 38 38 39 38 32 28 29 31 31 30 26 23 25 24 23 25
16 15 17 18 19 21 19 19 23 26 27 28 28 28 28 25 20 17 15 14 13 12 12 13 14 15 16 17 19 21 23 24 24 25 27 29 31 36 39 38 40 43 43 40 37 37 39 40 39 39 40 37 32 29 29 29 29 29 29 26 26 26 26
17 18 18 18 21 22 20 20 23 26 28 29 29 29 29 26 23 20 17 15 14 12 12 13 14 14 16 17 19 20 22 23 24 24 26 29 32 35 40 41 43 45 43 39 37 38 40 42 42 39 36 33 29 27 28 28 28 30 31 29 29 28 28
17 20 20 20 22 23 21 21 24 27 28 29 29 30 29 26 23 21 19 17 15 13 12 12 13 15 16 18 19 21 23 24 25 25 27 29 33 37 40 43 46 46 42 40 41 42 45 45 44 39 29 23 27 29 27 27 27 29 32 32 29 29 28
14 17 21 21 23 23 20 21 24 26 28 29 30 31 30 26 23 20 18 16 15 13 13 13 14 17 20 21 22 24 25 26 26 27 28 31 35 39 43 47 50 47 41 42 43 41 44 44 44 41 30 24 32 38 31 25 24 26 30 32 30 28 27
12 15 19 21 23 24 21 20 23 26 29 30 29 29 27 24 22 20 19 17 15 14 14 15 17 20 22 23 24 25 26 27 29 29 30 33 38 43 46 50 53 49 39 40 41 38 40 43 43 39 32 29 35 38 31 24 23 24 26 28 30 29 29
12 13 15 19 23 24 23 21 22 25 27 28 27 26 24 22 21 20 17 15 14 15 16 17 19 21 22 23 25 26 27 27 30 31 34 36 40 46 50 54 56 52 44 42 42 40 39 40 38 33 31 31 32 33 29 25 24 nan nan 31 27 27 26
11 12 13 16 20 23 23 20 21 24 25 26 25 24 23 22 22 21 18 17 17 18 20 20 22 23 24 25 26 28 28 29 31 33 35 39 43 46 50 55 58 54 46 43 44 39 39 39 35 34 35 33 31 30 29 27 nan nan nan nan nan nan 26
11 12 12 15 19 21 20 18 19 23 25 26 26 25 25 25 25 24 23 22 22 23 23 24 24 25 25 27 28 29 30 29 32 34 37 39 43 46 51 55 56 53 46 40 40 40 39 38 37 37 35 32 29 28 28 26 nan nan nan nan nan nan 27
18 17 15 15 17 18 18 18 20 23 25 27 28 28 28 28 28 27 27 27 27 28 27 27 27 27 27 28 30 31 32 33 34 36 39 41 44 48 52 55 55 52 46 42 38 38 39 37 36 35 32 30 28 27 25 24 28 nan nan nan nan nan nan
21 19 17 16 16 16 17 19 23 27 30 30 32 32 32 31 31 30 29 29 30 31 31 30 29 29 30 31 33 34 35 36 37 37 41 45 46 48 50 52 52 49 45 42 39 39 37 36 36 34 31 29 28 27 26 24 nan nan nan nan nan nan nan
23 21 19 20 18 18 21 23 25 30 34 37 38 36 35 33 32 31 31 32 33 33 33 33 31 31 32 34 36 38 39 40 40 40 45 47 47 49 50 49 50 47 43 41 40 38 37 35 33 32 31 30 29 26 nan nan nan nan nan nan nan nan 27
28 25 24 23 21 22 26 28 30 34 38 40 39 38 35 35 35 34 35 34 34 36 37 35 33 33 35 37 39 41 42 42 43 44 48 49 50 51 50 47 45 42 40 41 41 40 38 36 32 30 29 30 29 24 nan 21 27 nan nan nan nan nan 25
32 29 27 25 24 27 31 34 35 39 42 42 41 41 40 40 40 39 38 37 37 39 40 38 36 36 38 39 42 44 44 43 43 47 50 52 52 51 48 44 41 39 40 42 43 41 39 37 33 31 31 32 29 24 18 16 22 nan nan nan nan nan 26
33 32 32 31 29 29 32 37 40 44 46 47 47 47 46 45 45 42 41 41 41 41 42 40 39 39 40 42 44 46 47 45 46 49 53 53 50 48 44 41 39 39 40 41 42 40 37 36 33 31 32 31 27 21 15 13 18 nan 24 25 nan nan 27
34 33 35 35 35 36 39 44 48 49 50 51 50 50 49 48 45 44 44 45 45 45 44 43 42 42 44 46 47 48 48 47 49 52 52 51 48 44 41 39 37 39 40 41 40 37 35 35 33 32 31 28 22 18 15 14 16 26 27 28 29 31 30
39 36 38 39 41 42 43 44 46 49 52 52 51 51 49 48 47 46 46 48 49 49 47 46 47 48 50 51 50 50 50 50 52 54 51 46 45 43 39 37 38 40 41 40 39 37 35 35 33 32 30 26 22 19 20 20 19 30 33 31 33 35 33
42 42 44 47 45 43 44 47 50 54 55 53 52 52 50 49 49 48 49 50 52 51 50 49 51 54 56 55 53 51 51 52 55 54 48 44 44 45 39 37 37 39 41 40 40 38 37 36 34 32 30 27 25 25 25 25 27 28 35 37 40 39 36
45 46 48 49 48 48 49 51 52 54 55 53 53 52 51 50 50 49 50 53 53 52 51 52 54 57 57 55 54 53 53 55 57 52 46 44 43 43 40 39 39 40 41 40 40 39 37 36 37 35 34 32 31 31 29 29 33 33 37 40 41 40 38
50 52 53 54 54 53 54 53 53 54 54 55 55 54 53 52 51 51 53 55 52 53 54 55 56 57 56 55 56 56 56 56 53 49 45 44 42 40 40 41 40 41 42 41 40 39 39 39 38 37 36 35 36 34 33 33 32 36 40 40 nan 41 42
54 56 56 56 55 53 52 52 54 55 56 56 57 57 56 54 53 54 55 54 53 54 54 55 56 57 57 57 58 56 54 52 49 46 44 42 41 41 41 41 41 41 42 41 41 41 41 41 41 40 40 38 40 38 36 34 33 34 40 nan nan nan nan
56 56 55 52 50 50 52 53 55 57 59 58 58 58 57 54 51 53 55 54 53 52 53 55 57 58 59 58 56 53 50 48 47 44 42 42 42 41 41 41 41 41 42 41 41 42 43 43 43 43 42 41 40 41 38 33 31 35 41 nan nan nan nan
56 56 54 52 50 50 51 53 55 57 59 61 59 57 55 53 52 53 54 52 51 51 54 56 58 58 57 56 52 49 46 46 44 42 42 42 43 41 39 39 40 40 40 41 42 44 44 44 43 42 41 41 43 43 39 34 31 33 37 43 nan nan nan
54 54 52 51 50 51 54 56 57 58 60 62 61 58 54 52 51 52 51 50 51 53 55 55 54 53 52 51 48 46 45 44 45 43 44 43 41 39 39 39 39 40 40 40 42 43 45 44 43 41 41 40 44 44 40 34 32 33 37 42 44 46 47
54 54 53 53 53 54 55 56 58 59 61 61 59 57 54 51 50 51 50 50 52 52 52 51 50 49 48 46 45 45 43 43 45 44 44 44 44 43 42 39 39 39 40 43 40 42 43 43 43 42 41 41 46 46 42 38 36 37 39 43 43 42 44
56 56 55 55 56 58 58 58 58 58 57 55 54 53 51 50 50 49 50 52 52 51 50 50 47 46 46 45 44 44 44 43 46 45 42 45 45 45 44 45 46 43 41 43 44 46 45 44 43 41 43 42 47 45 42 39 40 51 51 50 50 nan nan
57 56 56 57 58 59 58 57 56 56 55 53 53 52 51 50 50 50 51 51 51 49 49 48 46 45 46 45 43 46 44 44 45 44 44 46 46 45 46 45 47 49 47 45 43 43 43 47 45 43 43 44 45 48 50 53 53 51 50 nan nan nan nan
59 59 58 57 57 57 57 55 54 54 54 53 53 52 49 49 49 49 49 49 47 46 46 46 46 46 47 46 47 50 44 44 46 47 48 47 45 45 45 46 46 47 48 47 47 48 48 48 47 46 47 50 46 45 45 44 nan nan nan nan nan 48 49
Wind_Direction
309 327 328 318 316 325 334 335 331 330 334 334 332 333 330 321 315 305 302 303 307 304 305 308 312 315 326 324 329 325 323 323 323 328 331 338 343 343 342 339 337 335 334 333 333 332 328 325 324 323 320 320 321 319 317 313 308 305 306 306 304 300 298
313 332 334 327 330 335 336 333 332 332 335 337 337 339 338 334 323 316 309 305 305 305 302 305 310 316 318 320 319 325 326 326 324 316 322 329 334 337 337 340 335 332 331 329 327 324 323 323 322 321 320 319 320 319 317 313 310 308 306 303 302 300 299
307 326 332 324 327 328 333 333 334 335 336 334 338 340 342 337 331 326 315 308 308 306 304 308 309 311 309 313 317 321 322 320 320 321 326 329 334 336 331 333 331 329 328 327 325 321 320 320 320 319 321 319 319 317 315 313 312 310 306 301 297 296 297
298 327 340 332 331 330 332 337 336 333 333 335 337 341 341 340 334 328 323 319 316 312 313 309 307 310 308 311 314 314 319 322 321 321 327 327 328 328 328 328 327 327 324 326 326 323 321 323 324 325 327 322 318 315 314 312 312 311 308 303 295 292 293
291 322 339 338 336 327 330 336 332 328 333 335 336 337 338 338 336 331 329 326 325 324 322 320 310 311 303 305 298 302 314 321 321 322 324 325 326 327 330 332 327 327 323 324 326 325 324 327 328 327 325 324 321 319 317 314 312 309 307 305 301 296 295
277 318 334 333 333 331 332 335 332 330 331 333 336 337 336 338 336 339 333 327 327 325 323 326 328 318 313 313 310 306 310 317 320 321 323 324 326 327 330 331 326 324 326 329 328 325 322 324 327 326 326 323 320 316 316 316 316 315 312 312 313 306 297
258 308 317 321 318 318 323 321 319 322 326 327 331 334 336 336 338 336 329 328 328 328 334 340 338 328 317 312 315 313 315 319 321 325 323 325 327 327 327 325 325 328 329 328 328 324 322 322 322 325 327 324 318 318 317 316 316 317 316 317 316 307 296
262 283 303 304 294 292 299 302 304 310 313 317 325 332 336 334 331 332 332 325 326 334 341 348 341 325 316 310 306 317 318 323 321 321 320 323 324 327 322 323 327 326 325 329 327 323 323 323 321 325 324 322 322 319 316 314 312 316 316 313 306 299 292
260 283 295 298 289 281 284 287 289 297 309 317 324 327 330 330 331 331 332 328 327 338 350 351 339 321 311 305 306 317 317 318 319 319 322 323 322 325 322 323 323 323 324 327 326 322 323 324 325 325 326 326 326 321 317 315 314 313 311 304 297 295 294
253 270 277 281 278 282 288 285 281 286 302 310 314 318 324 328 327 324 326 329 327 340 348 341 324 316 312 311 316 318 317 319 320 323 325 327 323 325 328 327 325 324 326 326 324 323 320 323 324 323 324 327 327 327 326 320 315 308 297 292 290 290 297
252 266 267 272 275 283 293 292 287 288 298 303 307 312 315 320 321 319 321 322 326 329 334 323 317 321 320 322 326 324 321 323 324 326 331 332 330 332 331 331 329 325 325 324 324 324 322 321 323 322 323 320 318 323 330 326 316 306 293 287 284 289 300
250 262 262 266 270 280 296 292 284 285 293 296 302 306 308 312 315 316 316 322 323 325 319 319 320 329 327 327 329 326 327 327 327 330 334 334 334 333 330 330 329 326 327 327 324 324 324 320 320 322 325 321 311 308 318 320 311 302 296 291 287 289 299
245 256 261 269 272 275 282 288 294 293 294 296 300 301 303 309 312 314 314 321 328 323 316 316 323 330 335 335 335 330 330 329 330 329 331 331 330 329 330 334 331 327 327 328 327 327 327 322 320 321 326 330 323 310 313 316 305 294 292 290 289 290 296
245 252 257 262 270 282 293 291 287 290 293 295 295 297 301 306 308 311 315 320 323 323 317 313 327 335 339 337 335 332 330 331 330 328 327 326 327 330 332 331 325 320 318 324 327 330 329 324 321 320 321 332 339 334 320 310 297 291 290 290 292 294 298
243 253 259 269 276 278 278 281 285 290 291 291 294 300 305 305 307 308 312 315 318 323 324 321 326 332 334 332 330 329 326 326 328 325 328 330 327 329 331 327 316 311 317 323 324 327 329 324 318 314 304 301 326 332 325 310 297 286 288 291 295 298 300
242 247 256 267 276 279 275 276 281 285 286 289 297 303 304 303 306 311 312 315 323 327 327 326 328 331 332 331 328 325 324 327 323 327 328 327 328 329 329 318 314 326 332 325 324 325 324 320 319 321 311 301 313 323 321 312 296 290 292 291 292 300 300
242 243 249 263 269 271 269 273 279 280 284 292 301 307 304 301 305 307 310 309 315 321 323 323 326 328 330 331 326 327 326 328 326 326 322 323 327 329 326 319 320 331 336 329 325 327 325 323 325 328 324 316 316 321 318 311 299 nan nan 300 297 297 299
236 244 248 260 265 264 267 276 282 286 291 298 304 309 308 303 303 304 307 307 312 315 316 320 322 324 324 325 325 325 329 329 327 324 323 323 326 328 328 322 324 329 331 325 322 323 322 320 314 313 317 323 327 323 316 309 nan nan nan nan nan nan 299
218 229 237 250 259 265 274 286 291 291 293 297 302 307 310 306 304 305 305 305 307 307 311 315 318 318 318 319 321 321 322 325 324 323 321 322 324 325 325 322 323 325 324 323 320 319 320 319 316 315 319 322 321 319 315 310 nan nan nan nan nan nan 301
205 208 218 235 248 257 262 265 270 278 286 291 297 301 300 300 300 299 300 300 300 305 307 310 313 314 315 314 316 316 316 318 318 319 319 318 320 322 322 320 323 321 317 315 317 315 314 313 313 314 319 321 319 315 312 306 298 nan nan nan nan nan nan
211 212 220 236 253 261 266 272 273 277 281 286 290 289 290 292 292 293 297 298 298 299 301 305 308 310 310 310 312 313 312 313 313 317 316 315 319 321 321 322 318 317 312 311 319 317 312 312 315 317 320 320 318 312 308 299 nan nan nan nan nan nan nan
217 222 229 240 253 259 268 273 273 274 275 276 279 281 283 287 291 295 294 293 294 294 295 299 303 305 306 307 308 309 309 309 312 316 313 316 320 319 320 319 317 314 310 312 315 311 310 312 316 318 317 318 318 316 nan nan nan nan nan nan nan nan 283
219 228 233 243 255 260 261 260 257 257 261 266 272 277 282 285 290 291 289 289 288 289 291 296 299 300 302 304 304 305 305 307 311 314 314 316 317 318 318 317 315 312 309 313 309 310 313 315 316 314 317 320 319 320 nan 297 298 nan nan nan nan nan 281
220 231 236 241 243 249 258 258 256 255 259 265 272 276 278 283 286 285 285 284 284 285 289 294 295 296 298 300 300 302 302 304 310 312 313 314 317 318 317 314 313 312 311 313 311 312 315 316 316 320 321 324 326 324 309 297 296 nan nan nan nan nan 289
226 233 239 243 246 251 257 258 258 259 263 268 272 274 276 280 283 282 282 283 282 283 287 291 292 294 295 296 298 300 300 302 307 311 313 314 315 315 315 312 313 315 313 310 308 309 311 313 316 321 325 330 331 321 311 290 284 nan 306 304 nan nan 294
231 236 241 244 247 248 250 255 257 259 263 266 268 272 276 279 280 280 279 280 281 282 284 288 289 289 290 293 296 299 299 300 305 308 310 311 311 311 310 307 312 316 316 313 310 311 314 315 316 324 327 326 326 320 319 300 284 288 300 304 304 307 302
232 236 244 248 250 251 251 254 256 258 260 261 266 271 275 276 276 276 276 277 279 281 283 285 286 289 290 291 294 297 298 298 303 306 307 306 306 308 306 309 313 314 311 312 312 313 313 315 318 321 322 319 314 317 319 305 291 289 302 299 301 306 309
236 237 240 244 248 251 253 254 254 255 256 259 264 267 270 271 270 270 273 275 277 279 281 283 287 290 291 290 291 295 296 297 300 303 302 302 302 302 306 309 313 313 312 311 309 310 311 312 314 315 315 311 307 309 310 304 297 294 295 292 295 306 308
239 241 244 247 249 250 253 254 255 256 258 260 261 262 264 266 266 266 269 271 275 277 280 283 287 290 290 289 290 293 295 296 299 300 300 300 300 303 307 306 310 311 310 308 306 307 310 311 311 312 311 307 303 305 309 309 298 283 283 286 296 302 302
239 242 245 246 248 251 253 253 255 256 255 255 255 257 258 259 260 261 264 270 274 277 280 284 286 287 288 289 290 292 294 296 298 299 299 298 300 304 306 306 307 306 305 304 304 305 307 307 309 310 309 309 306 305 307 306 302 284 283 288 nan 299 300
237 239 241 244 247 251 254 255 254 253 252 251 252 252 252 253 257 262 267 273 277 279 281 283 284 286 287 288 289 291 293 294 296 299 299 300 302 304 306 307 306 305 303 303 304 305 306 306 307 306 303 304 304 309 310 309 304 292 285 nan nan nan nan
236 238 241 245 249 252 255 254 254 254 254 252 252 252 252 254 260 267 273 278 278 278 280 282 284 285 285 285 288 290 292 293 294 296 298 300 301 303 304 305 305 304 303 302 303 305 304 304 304 304 304 306 308 309 307 303 297 293 290 nan nan nan nan
236 237 239 241 244 247 247 248 250 253 254 253 251 251 253 258 264 270 275 276 277 277 280 282 283 284 284 286 288 289 289 289 292 294 296 299 298 299 300 302 303 302 301 302 304 305 304 302 302 303 303 304 307 308 303 298 292 291 292 291 nan nan nan
238 238 238 240 241 243 245 245 247 252 255 255 253 254 257 260 265 270 273 274 275 277 280 281 282 284 285 287 286 285 286 288 288 291 292 294 295 297 299 301 300 299 299 302 302 302 300 301 303 304 304 304 303 304 303 297 293 291 293 290 291 292 294
235 236 236 238 240 244 248 252 254 257 259 259 259 260 261 261 263 267 269 270 274 278 279 280 283 284 285 284 283 282 283 284 287 289 289 290 282 279 279 281 285 288 296 285 288 292 297 302 303 304 304 303 301 304 305 301 300 299 285 288 289 291 297
234 237 240 244 247 249 250 252 256 257 257 256 257 259 259 258 260 265 268 271 275 278 278 280 281 282 283 282 281 282 283 285 287 289 291 291 288 288 285 281 282 280 287 290 283 283 285 289 294 294 295 299 298 296 303 303 297 289 287 288 285 nan nan
239 243 247 249 250 251 252 253 254 255 255 255 255 255 255 256 260 264 268 270 273 274 275 278 279 280 281 283 283 283 284 285 287 289 290 290 292 294 292 293 286 279 279 282 284 285 284 288 289 289 287 288 293 289 282 285 287 291 289 nan nan nan nan
241 244 248 250 251 253 255 255 255 256 257 256 254 253 255 259 263 265 267 268 268 270 273 276 278 279 280 281 279 279 285 286 288 290 292 292 293 295 296 295 295 291 282 282 284 284 284 283 284 283 282 282 284 290 290 283 nan nan nan nan nan 286 287